Eilat, Israel

9:58 PM IDT on October 19, 2017 (GMT +0300)
Eilat

Weather History for LLET - November, 2012

Change the Weather History Date:

Tuesday, November 13, 2012

  Actual Average Record
Temperature  
Mean Temperature 70 °F -  
Max Temperature 78 °F 75 °F 91 °F (2010)
Min Temperature 62 °F 58 °F 55 °F (2011)
Cooling Degree Days 5    
Growing Degree Days 20 (Base 50)    
Moisture  
Dew Point 53 °F    
Average Humidity 51    
Maximum Humidity 77    
Minimum Humidity 26    
Precipitation  
Precipitation 0.00 in 0.01 in - ()
Sea Level Pressure  
Sea Level Pressure 30.00 in    
Wind  
Wind Speed 5 mph ()    
Max Wind Speed 12 mph    
Max Gust Speed -    
Visibility 6.2 miles    
Events      
Averages and records for this station are not official NWS values.
T = Trace of Precipitation, MM = Missing Value Source: Averaged Metar Reports

Daily Weather History Graph

Daily Weather History Graph

Search for Another Location

Airport or City:

Trip Planner

Search our weather history database for the weather conditions in past years. The results will help you decide how hot, cold, wet, or windy it might be!

Date:

Astronomy

Nov. 13, 2012 Rise Set
Actual Time 6:02 AM IST 4:45 PM IST
Civil Twilight 5:37 AM IST 5:10 PM IST
Nautical Twilight 5:09 AM IST 5:39 PM IST
Astronomical Twilight 4:40 AM IST 6:07 PM IST
Moon 5:16 AM IST (11/13) 4:22 PM IST (11/13)
Length of Visible Light 11h 33m
Length of Day
10h 42m
Waning Crescent, 0% of the Moon is Illuminated
Nov 13
Waning Crescent
Nov 14
New
Nov 20
First Quarter
Nov 28
Full
Dec 6
Last Quarter

Hourly Weather History & Observations

Time (IST) Temp. Dew Point Humidity Pressure Visibility Wind Dir Wind Speed Gust Speed Precip Events Conditions
2:00 AM 66 °F 56 °F 62% 30.00 in - NNE 3.5 mph - -  
5:50 AM 64.4 °F 57.2 °F 77% 30.01 in 6.2 mi North 4.6 mph - N/A   Partly Cloudy
6:50 AM 66.2 °F 57.2 °F 73% 30.04 in 6.2 mi North 3.5 mph - N/A   Partly Cloudy
7:50 AM 66.2 °F 57.2 °F 73% 30.04 in 6.2 mi NE 3.5 mph - N/A   Partly Cloudy
8:00 AM 69 °F 56 °F 55% 30.04 in - NE 3.5 mph - -  
8:50 AM 69.8 °F 57.2 °F 64% 30.04 in 6.2 mi ENE 5.8 mph - N/A   Partly Cloudy
9:50 AM 71.6 °F 57.2 °F 60% 30.04 in 6.2 mi NE 6.9 mph - N/A   Partly Cloudy
10:50 AM 73.4 °F 51.8 °F 47% 30.01 in 6.2 mi NNE 9.2 mph - N/A   Partly Cloudy
11:50 AM 75.2 °F 51.8 °F 44% 29.98 in 6.2 mi NNE 9.2 mph - N/A   Partly Cloudy
12:50 PM 77.0 °F 51.8 °F 41% 29.98 in 6.2 mi NE 11.5 mph - N/A   Scattered Clouds
1:50 PM 77.0 °F 50.0 °F 39% 29.95 in 6.2 mi NE 10.4 mph - N/A   Scattered Clouds
2:00 PM 78 °F 50 °F 26% 29.97 in - ENE 6.9 mph - -  
2:50 PM 77.0 °F 48.2 °F 36% 29.95 in 6.2 mi NE 11.5 mph - N/A   Scattered Clouds
3:50 PM 77.0 °F 50.0 °F 39% 29.95 in 6.2 mi NE 9.2 mph - N/A   Scattered Clouds
4:50 PM 75.2 °F 50.0 °F 41% 29.95 in 6.2 mi NE 6.9 mph - N/A   Partly Cloudy
5:50 PM 75.2 °F 50.0 °F 41% 29.98 in - North 6.9 mph - N/A   Clear
6:50 PM 73.4 °F 51.8 °F 47% 30.01 in - North 5.8 mph - N/A   Clear
7:50 PM 71.6 °F 51.8 °F 50% 30.01 in - North 6.9 mph - N/A   Clear
8:00 PM 71 °F 51 °F 38% 30.03 in - NE 2.3 mph - -  
8:50 PM 71.6 °F 51.8 °F 50% 30.04 in - NNE 8.1 mph - N/A   Clear
9:50 PM 68.0 °F 53.6 °F 60% 30.04 in - NE 5.8 mph - N/A   Clear